Location: ShareBrained
(45.5589°N, 122.6491°W)
Time: 08:32:10
(UTC-08:00)

NOAA 19 - Pass Details

Date: 26 January 2020
Orbit: 840 x 861 km, 99.2° (Epoch: 25 February)

Event Time Altitude Azimuth Distance (km) Brightness Sun altitude
Rises 06:03:58 0° 15° (NNE) 3,408 8.4 -16.5°
Reaches altitude 10° 06:06:21 10° 17° (NNE) 2,468 7.7 -16.1°
Maximum altitude 06:11:50 78° 104° (ESE) 864 5.3 -15.2°
Drops below altitude 10° 06:17:16 10° 191° (SSW) 2,454 7.6 -14.3°
Sets 06:19:38 0° 193° (SSW) 3,387 8.3 -13.9°
